Flag for China Weather past 2 weeks in Shanghai, China

Now
59 °F

Light rain. Fog.


Feels Like: 57 °F
Forecast: 56 / 67 °F
Wind: 10 mph from East

Location: Shanghai Hongqiao Airport


UV Index: 5 (Moderate)

Visibility: 2 mi


Pressure: 29.92 "Hg

Humidity: 88%

Dew point: 55 °F

Location of ShanghaiLocation

Historic Weather in Shanghai

°F

Shanghai temperature yesterday

Maximum temperature yesterday: 64 °F (at 4:00 PM)
Minimum temperature yesterday: 57 °F (at 11:00 AM)
Average temperature yesterday: 60 °F

Past Weeks' High & Low Weather Summary

 TemperatureHumidityPressure
High81 °F (Apr 10, 1:00 PM)94% (Apr 12, 7:30 AM)30.33 "Hg (Apr 12, 7:30 AM)
Low45 °F (Apr 6, 5:30 AM)15% (Apr 6, 2:30 PM)29.77 "Hg (Apr 12, 3:00 PM)
Average61 °F67%30.01 "Hg
* Reported Apr 4 1:00 PM — Apr 19 1:30 PM, Shanghai, Weather by CustomWeather, © 2014

Note: Actual official high and low records may vary slightly from our data, if they occured in-between our weather recording intervals... More about our weather records

Advertising

Historic Weather Conditions — Data for Previous 24 hours

 ConditionsComfort  
Time TempWeatherWind HumidityBarometerVisibility
1:30 PM
Apr 19
59 °FLight rain. Fog.10 mph88%29.92 "Hg2 mi
1:00 PM59 °FLight rain. Fog.8 mph88%29.95 "Hg2 mi
12:30 PM59 °FLight rain. Fog.6 mph88%29.95 "Hg2 mi
12:00 PM59 °FLight rain. Fog.8 mph88%29.95 "Hg3 mi
11:30 AM59 °FLight rain. Partly sunny.8 mph88%29.95 "HgN/A
11:00 AM59 °FPartly sunny.8 mph82%29.95 "HgN/A
10:30 AM59 °FPartly sunny.6 mph82%29.95 "HgN/A
10:00 AM59 °FPartly sunny.10 mph82%29.95 "HgN/A
9:30 AM59 °FPartly sunny.8 mph82%29.95 "HgN/A
9:00 AM59 °FPartly sunny.10 mph82%29.92 "HgN/A
8:30 AM59 °FPartly sunny.13 mph82%29.92 "HgN/A
8:00 AM57 °FSprinkles. Partly sunny.10 mph88%29.92 "HgN/A
7:30 AM57 °FSprinkles. Partly sunny.17 mph88%29.89 "HgN/A
7:00 AM57 °FThunderstorms. Broken clouds.15 mph88%29.92 "Hg4 mi
6:30 AM57 °FStrong thunderstorms. Partly sunny.8 mph88%29.98 "Hg2 mi
6:00 AM57 °FThunderstorms. Partly sunny.8 mph88%29.95 "HgN/A
5:30 AM57 °FPartly sunny.13 mph88%29.92 "HgN/A
5:00 AM57 °FSprinkles. Passing clouds.8 mph88%29.92 "HgN/A
4:30 AM57 °FThunderstorms. Passing clouds.10 mph88%29.92 "HgN/A
4:00 AM57 °FSprinkles. Passing clouds.10 mph88%29.92 "HgN/A
3:30 AM57 °FSprinkles. Passing clouds.13 mph88%29.92 "HgN/A
3:00 AM59 °FThunderstorms. Passing clouds.10 mph82%29.92 "HgN/A
2:30 AM59 °FSprinkles. Passing clouds.8 mph82%29.95 "HgN/A
2:00 AM59 °FPassing clouds.6 mph82%29.95 "HgN/A
1:30 AM57 °FPassing clouds.10 mph82%29.92 "HgN/A
1:00 AM57 °FPassing clouds.13 mph82%29.95 "HgN/A
12:30 AM57 °FPassing clouds.10 mph82%29.98 "HgN/A
12:00 AM57 °FPassing clouds.6 mph82%29.98 "HgN/A
11:30 PM
Apr 18
57 °FPassing clouds.8 mph82%29.98 "HgN/A
11:00 PM57 °FPassing clouds.8 mph77%30.01 "HgN/A
10:30 PM57 °FPassing clouds.10 mph77%30.01 "HgN/A
10:00 PM57 °FPassing clouds.8 mph77%30.01 "HgN/A
9:30 PM59 °FPassing clouds.8 mph72%30.01 "HgN/A
9:00 PM59 °FPassing clouds.6 mph72%30.01 "HgN/A
8:30 PM59 °FPassing clouds.8 mph68%30.01 "HgN/A
8:00 PM59 °FPassing clouds.8 mph68%30.01 "HgN/A
7:30 PM59 °FClear.8 mph68%30.01 "Hg10 mi
7:00 PM59 °FClear.10 mph68%30.01 "Hg10 mi
6:30 PM61 °FPassing clouds.10 mph68%30.01 "HgN/A
6:00 PM61 °FPassing clouds.10 mph68%29.98 "HgN/A
5:30 PM63 °FPassing clouds.8 mph64%30.01 "HgN/A
5:00 PM63 °FPassing clouds.6 mph64%29.98 "HgN/A
4:30 PM63 °FPassing clouds.10 mph64%29.98 "HgN/A
4:00 PM64 °FPassing clouds.10 mph60%29.98 "HgN/A
3:30 PM63 °FScattered clouds.10 mph64%29.98 "HgN/A
3:00 PM63 °FPartly sunny.13 mph64%29.98 "HgN/A
2:30 PM61 °FPartly sunny.10 mph72%30.01 "HgN/A
2:00 PM59 °FPartly sunny.10 mph72%30.01 "HgN/A
Weather by CustomWeather, © 2014

See weather overview